This is the latest recevied weather packets stored in our database for station/object DH1BUZ-12. If no packets are shown the sender has not sent any weather packets the latest 10 day(s).
| Time | Temp. | Humidity | Pressure | Rain* | Wind** | Luminosity | Snow |
|---|---|---|---|---|---|---|---|
| 1777625606 | 20° C | 38% | 1026 hPa | - | - | - | - |
| 1777625541 | 20° C | 39% | 1026 hPa | - | - | - | - |
| 1777625475 | 19.44° C | 38% | 1026 hPa | - | - | - | - |
| 1777625344 | 19.44° C | 39% | 1026 hPa | - | - | - | - |
| 1777625278 | 18.89° C | 40% | 1027 hPa | - | - | - | - |
| 1777625179 | 18.89° C | 39% | 1027 hPa | - | - | - | - |
| 1777625147 | 18.89° C | 39% | 1027 hPa | - | - | - | - |
| 1777625082 | 18.89° C | 40% | 1026 hPa | - | - | - | - |
| 1777625016 | 18.89° C | 40% | 1027 hPa | - | - | - | - |
| 1777624951 | 18.89° C | 38% | 1026 hPa | - | - | - | - |
| 1777624885 | 18.89° C | 39% | 1027 hPa | - | - | - | - |
| 1777624819 | 18.89° C | 40% | 1027 hPa | - | - | - | - |
| 1777624754 | 19.44° C | 40% | 1027 hPa | - | - | - | - |
| 1777624688 | 18.89° C | 40% | 1027 hPa | - | - | - | - |
| 1777624623 | 18.89° C | 42% | 1027 hPa | - | - | - | - |
| 1777624491 | 18.89° C | 41% | 1027 hPa | - | - | - | - |
| 1777624426 | 18.33° C | 41% | 1027 hPa | - | - | - | - |
| 1777624360 | 18.33° C | 40% | 1027 hPa | - | - | - | - |
| 1777624295 | 18.33° C | 42% | 1027 hPa | - | - | - | - |
| 1777624229 | 18.89° C | 44% | 1027 hPa | - | - | - | - |
| 1777624164 | 18.89° C | 42% | 1027 hPa | - | - | - | - |
| 1777624098 | 18.89° C | 42% | 1027 hPa | - | - | - | - |
| 1777624032 | 18.33° C | 41% | 1027 hPa | - | - | - | - |
| 1777623967 | 18.33° C | 38% | 1027 hPa | - | - | - | - |
| 1777623901 | 18.89° C | 39% | 1027 hPa | - | - | - | - |
* Rain since midnight (hover to see other rain measurements)
** Current wind speed in m/s (hover to see current wind gust speed)